Regional Weather Roundup
Issued by NWS Goodland, KS

Home | Current Version | Previous Version | Graphics & Text | Print | Product List | Glossary On
Versions: 1 2 3 4 5 6 7 8 9 10 11 12 13 14 15 16 17 18 19 20 21 22 23 24 25 26 27 28 29 30 31 32 33 34 35 36 37 38 39 40 41 42 43 44 45 46 47 48 49 50
181
ASUS43 KGLD 200908
RWRGLD

GOODLAND FORECAST AREA HOURLY WEATHER ROUNDUP
NATIONAL WEATHER SERVICE GOODLAND KS
300 AM MDT SUN AUG 20 2017

...OFFICIAL OBSERVATIONS...

CITY           SKY/WX    TMP DP  RH WIND       PRES   REMARKS
GOODLAND KS    CLEAR     71  50  47 S15       29.93S
HILL CITY KS   CLEAR     71  64  78 W6        29.89S
IMPERIAL NEB   CLEAR     68  57  68 NW7       29.88S
MCCOOK NEB     CLEAR     71  60  68 W12       29.86S
AKRON CO       CLEAR     61  45  55 W10       30.00S
BURLINGTON CO  CLEAR     66  53  63 S13       29.97S
LIMON CO       CLOUDY    52  50  93 NW5       30.07S
$$

...UNOFFICIAL OBSERVATIONS...

CITY           SKY/WX    TMP DP  RH WIND       PRES   REMARKS
LENORA KS        N/A     72  32  23 SW9         N/A
NORTON KS      CLEAR     73  57  56 SW13      29.85F
TRENTON NEB      N/A     62  32  32 SW5         N/A
KIT CARSON CO    N/A     60  53  77 CALM        N/A
YUMA CO        FAIR      61  37  41 W9        29.95S
$$




USA.gov is the U.S. government's official web portal to all federal, state and local government web resources and services.